Find Starlink 3669

NORAD ID: 51971 Int'l Des: 2022-025 Owner: SPXS Country: US Constellation: starlink operational
LEOCIRCULAR

当前视图

正在加载3D地球...

About Starlink 3669

Starlink 3669 (NORAD 51971) is a starlink constellation satellite (v1.5) launched Mar 9, 2022 by SPXS of US. It operates in LEO, CIRCULAR orbit with a mass of 297.00 kg.

关于 Starlink 3669

正在加载描述...

即将过境

Passes for default location (London). Set your location on the main map for personalized predictions.

高度历史

Loading altitude history...

两行轨道根数

1 51971U 22025R 26170.57382816 -.00000498 00000-0 -43000-5 0 9995
2 51971 53.1599 270.5104 0000839 105.0988 255.0106 15.31706004236622
Epoch: Jun 19, 2026 • Age: 6 hours

当前状态

高度 489.4 km
速度 7.62 km/s
星下点 -52.39°S, 37.43°W
发射日期 Mar 9, 2022
运行时间 4.2 years
类型 internet

技术详情

分类 Payload
质量 297.00 kg
干质量 275.00 kg
总质量 297.00 kg
长度 0.20 m
直径 2.80 m
跨度 9.00 m
形状 Box + pan
制造商 SPXS
平台类型 Starlink
阶段状态 In Orbit
所有者/国家 SPXS/US

Most Searched